Regional Weather Roundup
Issued by NWS

Home | Current Version | Previous Version | Graphics & Text | Print | Product List | Glossary On
Versions: 1 2 3 4 5 6 7 8 9 10 11 12 13 14 15 16 17 18 19 20 21 22 23 24 25 26 27 28 29 30 31 32 33 34 35 36 37 38 39 40 41 42 43 44 45 46 47 48 49 50
413
ASUS44 KJAN 160203
RWRMS

MISSISSIPPI HOURLY WEATHER ROUNDUP
NATIONAL WEATHER SERVICE JACKSON MS
900 PM CDT MON SEP 15 2014

NOTE: "FAIR: INDICATES FEW OR NO CLOUDS BELOW 12,000 FEET WITH NO
SIGNIFICANT WEATHER AND/OR OBSTRUCTIONS TO VISIBILITY.

MSZ001>002-007>008-010>013-018>021-025>028-034>036-160300-
NORTHWEST MISSISSIPPI

CITY           SKY/WX    TMP DP  RH WIND       PRES   REMARKS
CLARKSDALE     FAIR      73  70  88 CALM      30.13R
CLEVELAND      FAIR      75  69  82 NW5       30.11S
GREENWOOD      CLOUDY    74  70  87 CALM      30.11R
GREENVILLE     CLOUDY    75  68  78 N6        30.11R
GRENADA        FAIR      72  70  94 CALM      30.11R
OLIVE BRANCH   CLEAR     72  72 100 CALM      30.12R
OXFORD         FAIR      72  68  88 CALM      30.14S
TUNICA         CLOUDY    73  68  83 NW5       30.13R
$$

MSZ003>006-009-014>017-022>024-029>033-037>039-160300-
NORTHEAST MISSISSIPPI

CITY           SKY/WX    TMP DP  RH WIND       PRES   REMARKS
COLUMBUS AFB   CLOUDY    77  70  77 CALM      30.10R
CORINTH        FAIR      72  68  88 CALM      30.12R
GOLDN TRIANGLE MOCLDY    79  68  69 CALM      30.11R
STARKVILLE     FAIR      73  70  88 CALM      30.11R
TUPELO         CLOUDY    77  69  76 NE5       30.11R
$$

MSZ040-058-160300-
CENTRAL MISSISSIPPI

CITY           SKY/WX    TMP DP  RH WIND       PRES   REMARKS
JACKSON INTL   PTCLDY    77  72  84 CALM      30.10R
JACKSON HAWKNS MOCLDY    81  70  69 CALM      30.11R
MERIDIAN KEY   PTCLDY    78  73  84 CALM      30.10R
MERIDIAN NAS   MOCLDY    76  72  87 CALM      30.11R
RAYMOND        FAIR      75  72  88 CALM      30.10R
VICKSBURG      MOCLDY    78  71  79 N3        30.09R
$$

MSZ059>079-160300-
SOUTH MISSISSIPPI

CITY           SKY/WX    TMP DP  RH WIND       PRES   REMARKS
BROOKHAVEN     FAIR      77  75  94 CALM      30.12R
HATTIESBURG    MOCLDY    80  73  79 CALM      30.10R
MCCOMB         CLOUDY    83  74  74 E5        30.10R
NATCHEZ        PTCLDY    77  73  88 CALM      30.10R
PINE BELT      PTCLDY   N/A N/A N/A SE5       30.11S
$$

MSZ080>082-160300-
COASTAL MISSISSIPPI

CITY           SKY/WX    TMP DP  RH WIND       PRES   REMARKS
BAY ST LOUIS   PTCLDY    79  70  73 N3        30.09R
BILOXI         CLOUDY    83  76  79 W3        30.08R HX  91
PASCAGOULA     MOCLDY    77  76  96 CALM      30.08R
GULFPORT       CLOUDY    81  75  82 NW3       30.07R
$$



USA.gov is the U.S. government's official web portal to all federal, state and local government web resources and services.